When you browse on this site, cookies collect data to enhance your experience and personalize the content and advertising you see.
Visit our Privacy Policy to learn more. By continuing to use the site, you agree to this use of cookies and data.
  • In Deutschland
  • Länderverzeichnis
  • Für 7 Tage
  • Wassertemperatur
  • Wetterkarte
  • Widgets
  • user-avatar
    Anmelden

    Stündliche Wetter Salta

    Heute, 27 Mai, Mittwoch

    Zeit Temperatur Niederschläge Wind Luftdruck Luftfeuchtigkeit
    00:00 +12°C° 0 mm 1 m/S 652 mmHg 52%
    01:00 +12°C° 0 mm 1 m/S 651 mmHg 51%
    02:00 +12°C° 0 mm 1 m/S 651 mmHg 51%
    03:00 +11°C° 0 mm 1 m/S 651 mmHg 50%
    04:00 +11°C° 0 mm 1 m/S 650 mmHg 50%
    05:00 +11°C° 0 mm 1 m/S 650 mmHg 49%
    06:00 +12°C° 0 mm 1 m/S 651 mmHg 48%
    07:00 +13°C° 0 mm 1 m/S 652 mmHg 46%
    08:00 +14°C° 0 mm 1 m/S 652 mmHg 45%
    09:00 +18°C° 0 mm 1 m/S 653 mmHg 40%
    10:00 +21°C° 0 mm 1 m/S 653 mmHg 36%
    11:00 +24°C° 0 mm 1 m/S 654 mmHg 31%
    12:00 +24°C° 0 mm 1 m/S 653 mmHg 31%
    13:00 +25°C° 0 mm 2 m/S 653 mmHg 30%
    14:00 +26°C° 0 mm 2 m/S 652 mmHg 29%
    15:00 +24°C° 0 mm 2 m/S 652 mmHg 35%
    16:00 +23°C° 0 mm 1 m/S 651 mmHg 40%
    17:00 +21°C° 0 mm 1 m/S 650 mmHg 45%
    18:00 +19°C° 0 mm 1 m/S 650 mmHg 50%
    19:00 +16°C° 0 mm 1 m/S 650 mmHg 55%
    20:00 +13°C° 0 mm 0 m/S 650 mmHg 60%
    21:00 +14°C° 0 mm 1 m/S 650 mmHg 59%
    22:00 +13°C° 0 mm 1 m/S 650 mmHg 59%
    23:00 +13°C° 0 mm 1 m/S 650 mmHg 58%

    Morgen, 28 Mai, Donnerstag

    Zeit Temperatur Niederschläge Wind Luftdruck Luftfeuchtigkeit
    00:00 +13°C° 0 mm 1 m/S 650 mmHg 59%
    01:00 +13°C° 0 mm 1 m/S 649 mmHg 59%
    02:00 +12°C° 0 mm 1 m/S 649 mmHg 59%
    03:00 +12°C° 0 mm 1 m/S 649 mmHg 60%
    04:00 +12°C° 0 mm 1 m/S 649 mmHg 60%
    05:00 +12°C° 0 mm 1 m/S 649 mmHg 60%
    06:00 +13°C° 0 mm 1 m/S 650 mmHg 58%
    07:00 +14°C° 0 mm 1 m/S 650 mmHg 56%
    08:00 +15°C° 0 mm 1 m/S 651 mmHg 54%
    09:00 +18°C° 0 mm 1 m/S 651 mmHg 48%
    10:00 +21°C° 0 mm 1 m/S 652 mmHg 42%
    11:00 +24°C° 0 mm 1 m/S 653 mmHg 36%
    12:00 +25°C° 0 mm 1 m/S 652 mmHg 35%
    13:00 +25°C° 0 mm 2 m/S 651 mmHg 35%
    14:00 +26°C° 0 mm 2 m/S 651 mmHg 34%
    15:00 +25°C° 0 mm 2 m/S 650 mmHg 38%
    16:00 +23°C° 0 mm 1 m/S 650 mmHg 42%
    17:00 +22°C° 0 mm 1 m/S 650 mmHg 47%
    18:00 +20°C° 0 mm 1 m/S 649 mmHg 51%
    19:00 +18°C° 0 mm 1 m/S 649 mmHg 56%
    20:00 +14°C° 0 mm 1 m/S 649 mmHg 60%
    21:00 +14°C° 0 mm 1 m/S 649 mmHg 61%
    22:00 +14°C° 0 mm 1 m/S 649 mmHg 62%
    23:00 +13°C° 0 mm 1 m/S 649 mmHg 63%

    übermorgen, 29 Mai, Freitag

    Zeit Temperatur Niederschläge Wind Luftdruck Luftfeuchtigkeit
    00:00 +13°C° 0 mm 1 m/S 649 mmHg 61%
    01:00 +13°C° 0 mm 1 m/S 649 mmHg 60%
    02:00 +13°C° 0 mm 1 m/S 649 mmHg 58%
    03:00 +13°C° 0 mm 1 m/S 649 mmHg 57%
    04:00 +13°C° 0 mm 1 m/S 649 mmHg 56%
    05:00 +13°C° 0 mm 1 m/S 649 mmHg 55%
    06:00 +14°C° 0 mm 1 m/S 649 mmHg 53%
    07:00 +14°C° 0 mm 1 m/S 650 mmHg 50%
    08:00 +15°C° 0 mm 1 m/S 650 mmHg 48%
    09:00 +19°C° 0 mm 1 m/S 651 mmHg 42%
    10:00 +22°C° 0 mm 1 m/S 652 mmHg 37%
    11:00 +25°C° 0 mm 1 m/S 652 mmHg 31%
    12:00 +26°C° 0 mm 1 m/S 652 mmHg 29%
    13:00 +27°C° 0 mm 1 m/S 651 mmHg 27%
    14:00 +28°C° 0 mm 1 m/S 651 mmHg 26%
    15:00 +26°C° 0 mm 1 m/S 650 mmHg 31%
    16:00 +24°C° 0 mm 1 m/S 650 mmHg 36%
    17:00 +23°C° 0 mm 1 m/S 649 mmHg 42%
    18:00 +20°C° 0 mm 1 m/S 649 mmHg 46%
    19:00 +18°C° 0 mm 1 m/S 649 mmHg 50%
    20:00 +15°C° 0 mm 1 m/S 649 mmHg 54%
    21:00 +15°C° 0 mm 1 m/S 649 mmHg 55%
    22:00 +14°C° 0 mm 1 m/S 649 mmHg 55%
    23:00 +14°C° 0 mm 1 m/S 649 mmHg 56%

    30 Mai, Samstag

    Zeit Temperatur Niederschläge Wind Luftdruck Luftfeuchtigkeit
    00:00 +14°C° 0 mm 1 m/S 648 mmHg 55%
    01:00 +14°C° 0 mm 1 m/S 648 mmHg 53%
    02:00 +14°C° 0 mm 1 m/S 648 mmHg 51%
    03:00 +14°C° 0 mm 1 m/S 648 mmHg 50%
    04:00 +14°C° 0 mm 2 m/S 648 mmHg 49%
    05:00 +14°C° 0 mm 2 m/S 648 mmHg 47%
    06:00 +14°C° 0 mm 1 m/S 649 mmHg 47%
    07:00 +15°C° 0 mm 1 m/S 649 mmHg 46%
    08:00 +16°C° 0 mm 1 m/S 650 mmHg 45%
    09:00 +19°C° 0 mm 1 m/S 651 mmHg 42%
    10:00 +20°C° 0 mm 2 m/S 651 mmHg 40%
    11:00 +23°C° 0 mm 2 m/S 652 mmHg 37%
    12:00 +24°C° 0 mm 2 m/S 651 mmHg 39%
    13:00 +24°C° 0 mm 3 m/S 650 mmHg 40%
    14:00 +24°C° 0 mm 3 m/S 650 mmHg 42%
    15:00 +21°C° 0 mm 3 m/S 649 mmHg 50%
    16:00 +19°C° 0 mm 3 m/S 649 mmHg 58%
    17:00 +18°C° 0 mm 3 m/S 649 mmHg 66%
    18:00 +16°C° 0 mm 3 m/S 649 mmHg 72%
    19:00 +14°C° 0 mm 2 m/S 649 mmHg 78%
    20:00 +12°C° 0 mm 2 m/S 649 mmHg 84%
    21:00 +12°C° 0 mm 2 m/S 650 mmHg 82%
    22:00 +12°C° 0 mm 2 m/S 650 mmHg 80%
    23:00 +12°C° 0 mm 2 m/S 650 mmHg 78%

    31 Mai, Sonntag

    Zeit Temperatur Niederschläge Wind Luftdruck Luftfeuchtigkeit
    00:00 +10°C° 0 mm 2 m/S 650 mmHg 77%
    01:00 +10°C° 0 mm 2 m/S 650 mmHg 77%
    02:00 +11°C° 0 mm 1 m/S 650 mmHg 76%
    03:00 +10°C° 0 mm 1 m/S 650 mmHg 76%
    04:00 +10°C° 0 mm 1 m/S 650 mmHg 76%
    05:00 +10°C° 0 mm 1 m/S 650 mmHg 76%
    06:00 +10°C° 0 mm 1 m/S 650 mmHg 75%
    07:00 +10°C° 0 mm 1 m/S 650 mmHg 74%
    08:00 +10°C° 0 mm 1 m/S 651 mmHg 73%
    09:00 +11°C° 0 mm 1 m/S 651 mmHg 69%
    10:00 +12°C° 0 mm 2 m/S 651 mmHg 64%
    11:00 +13°C° 0 mm 2 m/S 651 mmHg 60%
    12:00 +13°C° 0 mm 2 m/S 651 mmHg 57%
    13:00 +14°C° 0 mm 2 m/S 650 mmHg 54%
    14:00 +15°C° 0 mm 2 m/S 650 mmHg 51%
    15:00 +14°C° 0 mm 2 m/S 650 mmHg 53%
    16:00 +13°C° 0 mm 2 m/S 650 mmHg 56%
    17:00 +13°C° 0 mm 2 m/S 650 mmHg 59%
    18:00 +11°C° 0 mm 1 m/S 651 mmHg 63%
    19:00 +10°C° 0 mm 1 m/S 651 mmHg 66%
    20:00 +9°C° 0 mm 1 m/S 651 mmHg 70%
    21:00 +8°C° 0 mm 1 m/S 652 mmHg 71%
    22:00 +8°C° 0 mm 1 m/S 652 mmHg 72%
    23:00 +6°C° 0 mm 0 m/S 652 mmHg 74%

    1 Juni, Montag

    Zeit Temperatur Niederschläge Wind Luftdruck Luftfeuchtigkeit
    00:00 +6°C° 0 mm 0 m/S 652 mmHg 75%
    01:00 +6°C° 0 mm 0 m/S 651 mmHg 77%
    02:00 +5°C° 0 mm 0 m/S 651 mmHg 79%
    03:00 +5°C° 0 mm 0 m/S 651 mmHg 81%
    04:00 +4°C° 0 mm 0 m/S 651 mmHg 82%
    05:00 +5°C° 0 mm 1 m/S 651 mmHg 83%
    06:00 +6°C° 0 mm 1 m/S 652 mmHg 79%
    07:00 +6°C° 0 mm 0 m/S 652 mmHg 75%
    08:00 +7°C° 0 mm 0 m/S 653 mmHg 70%
    09:00 +10°C° 0 mm 1 m/S 654 mmHg 63%
    10:00 +13°C° 0 mm 1 m/S 654 mmHg 56%
    11:00 +15°C° 0 mm 1 m/S 655 mmHg 49%
    12:00 +16°C° 0 mm 1 m/S 654 mmHg 47%
    13:00 +16°C° 0 mm 2 m/S 654 mmHg 46%
    14:00 +17°C° 0 mm 2 m/S 653 mmHg 44%
    15:00 +16°C° 0 mm 2 m/S 653 mmHg 47%
    16:00 +16°C° 0 mm 2 m/S 653 mmHg 50%
    17:00 +15°C° 0 mm 1 m/S 652 mmHg 54%
    18:00 +13°C° 0 mm 1 m/S 652 mmHg 60%
    19:00 +11°C° 0 mm 1 m/S 652 mmHg 67%
    20:00 +8°C° 0 mm 0 m/S 652 mmHg 74%
    21:00 +7°C° 0 mm 0 m/S 652 mmHg 75%
    22:00 +7°C° 0 mm 0 m/S 652 mmHg 77%
    23:00 +6°C° 0 mm 0 m/S 651 mmHg 78%
    Mehr zeigen